[[{"header":{"parameterUnit":"m.s-1","parameterCategory":1,"la1":30.2991,"la2":30.254,"lo1":-89.0895,"lo2":-89.0444,"dy":0.0017,"dx":0.0017,"nx":28,"ny":28,"refTime":"2023-08-31T21:00:00:Z","depth":0,"parameterNumber":2,"parameterNumberName":"U-component_of_WINDS"},"data":[0,0,0,0,0,0,0,0,0,0,0,0,0,0,0,0,0,0,0,0,0,0,0,0,0,0,0,0,0,0,0,0,0,0,0,0,0,0,0,0,0,0,0,0,0,0,0,0,0,0,0,0,0,0,0,0,0,0,-0.3622,-0.3622,0,-0.3596,-0.3596,-0.3596,-0.3569,-0.3568,-0.3568,-0.3568,-0.3541,-0.354,-0.354,0,0,0,0,0,0,0,0,0,0,0,0,0,-0.3649,-0.3649,-0.3622,-0.3622,-0.3622,-0.3596,-0.3596,-0.3596,-0.3569,-0.3568,-0.3568,-0.3568,-0.3541,-0.354,-0.354,0,0,0,0,0,0,0,0,0,0,0,0,0,-0.3632,-0.3649,-0.3622,-0.3605,-0.3604,-0.3597,-0.3596,-0.3596,-0.3569,-0.3568,-0.3568,-0.3567,-0.3541,-0.354,-0.354,-0.3547,0,0,-0.3538,-0.3538,0,0,0,0,0,0,0,0,-0.3633,-0.3631,-0.3608,-0.3606,-0.3604,-0.3585,-0.3596,-0.3579,-0.3569,-0.3582,-0.3568,-0.3567,-0.3556,-0.3554,-0.355,-0.3546,-0.3545,-0.3538,-0.3538,-0.3537,-0.3537,0,0,0,0,0,0,0,-0.3634,-0.3632,-0.3612,-0.3608,-0.3606,-0.3599,-0.3596,-0.3592,-0.3572,-0.3581,-0.3579,-0.3576,-0.3555,-0.3551,-0.355,-0.3545,-0.3538,-0.3538,-0.3537,-0.3537,-0.3546,-0.3546,0,0,0,0,0,0,-0.3638,-0.3633,-0.3613,-0.3611,-0.3618,-0.3599,-0.3596,-0.3592,-0.3572,-0.3569,-0.3577,-0.3575,-0.3552,-0.355,-0.3549,-0.3556,-0.3537,-0.3537,-0.3537,-0.3545,-0.3546,-0.3547,0,0,0,0,0,0,-0.3639,-0.3636,-0.3614,-0.3622,-0.3618,-0.3599,-0.3595,-0.3592,-0.3588,-0.3569,-0.3566,-0.3576,-0.3552,-0.3549,-0.3548,-0.3555,-0.3537,-0.3536,-0.3545,-0.3546,-0.3546,-0.3571,0,0,0,0,0,0,-0.3639,-0.3637,-0.3639,-0.3622,-0.3618,-0.3614,-0.3596,-0.3592,-0.3587,-0.3585,-0.3568,-0.3565,-0.3551,-0.3549,-0.3548,-0.3554,-0.3536,-0.3544,-0.3545,-0.3546,-0.357,-0.3573,-0.3576,0,0,0,0,0,-0.3641,-0.3647,-0.364,-0.3637,-0.3621,-0.3614,-0.3612,-0.3596,-0.3588,-0.359,-0.3578,-0.3565,-0.3555,-0.3549,-0.3547,-0.3553,-0.3543,-0.3545,-0.3546,-0.3569,-0.3572,-0.3576,0,0,0,0,0,0,-0.3666,-0.3645,-0.3636,-0.3637,-0.3628,-0.361,-0.3612,-0.3601,-0.3594,-0.3592,-0.3572,-0.3569,-0.357,-0.3562,-0.3556,-0.356,-0.3547,-0.3548,-0.3565,-0.3569,-0.3571,-0.3573,-0.3535,0,0,0,0,0,-0.3672,-0.3668,-0.365,-0.3653,-0.3649,-0.3631,-0.3628,-0.3617,-0.3606,-0.3602,-0.359,-0.358,-0.3575,-0.3571,-0.3565,-0.3569,-0.3565,-0.3572,-0.3575,-0.3578,-0.3579,-0.358,-0.3583,-0.3551,-0.3551,-0.3551,0,0,-0.3683,-0.3671,-0.367,-0.3658,-0.3649,-0.3646,-0.3628,-0.3625,-0.3623,-0.3602,-0.3599,-0.3591,-0.3579,-0.358,-0.358,-0.3573,-0.3587,-0.358,-0.3582,-0.3581,-0.3582,-0.3585,-0.3588,-0.3552,-0.3552,-0.3551,0,0,-0.3703,-0.3694,-0.3695,-0.3687,-0.3674,-0.3663,-0.3663,-0.3647,-0.3641,-0.3638,-0.3623,-0.362,-0.361,-0.3602,-0.3597,-0.3615,-0.3603,-0.3614,-0.3628,-0.363,-0.3633,-0.3635,-0.3641,-0.3643,-0.3615,-0.3615,-0.3615,0,-0.3719,-0.3713,-0.3697,-0.3695,-0.369,-0.3672,-0.3673,-0.3666,-0.3652,-0.3649,-0.3642,-0.363,-0.3621,-0.362,-0.3625,-0.3621,-0.3621,-0.3615,-0.3634,-0.3636,-0.3638,-0.3643,-0.3645,-0.3616,-0.3616,-0.3616,-0.3616,0,-0.3733,-0.373,-0.3733,-0.372,-0.3715,-0.3715,-0.3699,-0.3697,-0.3687,-0.3676,-0.3674,-0.3663,-0.3654,-0.3653,-0.3643,-0.3651,-0.3647,-0.3637,-0.3624,-0.3642,-0.3647,-0.3649,-0.3618,-0.3618,-0.3617,-0.3617,0,0,-0.3767,-0.3746,-0.3747,-0.3741,-0.3726,-0.3723,-0.3723,-0.3714,-0.3713,-0.3704,-0.3703,-0.3696,-0.3687,-0.3681,-0.367,-0.3672,-0.3687,-0.3661,-0.3661,-0.3666,-0.3695,-0.3702,-0.3705,-0.3679,-0.3679,-0.3679,-0.3696,0,-0.3783,-0.378,-0.3767,-0.3768,-0.3765,-0.3748,-0.3747,-0.3738,-0.3729,-0.3725,-0.3715,-0.371,-0.3698,-0.3695,-0.3696,-0.3685,-0.3692,-0.3683,-0.3677,-0.3677,-0.368,-0.3707,-0.3715,-0.373,-0.3698,-0.3698,-0.3698,0,-0.3801,-0.3794,-0.3796,-0.3781,-0.3779,-0.3779,-0.3771,-0.3767,-0.3757,-0.375,-0.3744,-0.3732,-0.3731,-0.3719,-0.3717,-0.3711,-0.3708,-0.3703,-0.3703,-0.3701,-0.3688,-0.3705,-0.3735,-0.3737,-0.3701,-0.3701,-0.3701,0,-0.3825,-0.3816,-0.3815,-0.3811,-0.3794,-0.3795,-0.3788,-0.3777,-0.3773,-0.3766,-0.3763,-0.3756,-0.3752,-0.3747,-0.3733,-0.3726,-0.3733,-0.372,-0.3727,-0.3727,-0.3728,-0.3728,-0.3757,-0.3728,-0.3728,-0.3728,-0.3727,0,-0.3844,-0.3846,-0.3826,-0.3825,-0.3827,-0.3811,-0.3813,-0.3804,-0.3795,-0.3793,-0.3778,-0.3776,-0.3759,-0.3755,-0.3745,-0.3745,-0.3743,-0.3737,-0.3734,-0.3738,-0.3739,-0.3735,-0.3733,-0.3728,-0.3728,-0.3728,-0.3728,0,-0.387,-0.3857,-0.3855,-0.384,-0.3837,-0.3838,-0.3825,-0.3824,-0.3815,-0.3812,-0.3811,-0.3795,-0.3791,-0.3777,-0.3768,-0.3761,-0.3764,-0.3759,-0.3767,-0.3765,-0.3773,-0.3772,-0.38,-0.3802,-0.3772,-0.3772,-0.3773,0,-0.3883,-0.3884,-0.3869,-0.3866,-0.386,-0.3857,-0.3853,-0.3838,-0.3834,-0.3823,-0.3824,-0.3818,-0.3812,-0.3805,-0.3793,-0.3787,-0.3781,-0.3792,-0.378,-0.3784,-0.3781,-0.3781,-0.3781,-0.3794,-0.3794,-0.3794,-0.3795,0,-0.3907,-0.3901,-0.3895,-0.3888,-0.3884,-0.3878,-0.3871,-0.387,-0.3853,-0.385,-0.3845,-0.3841,-0.3832,-0.3827,-0.3819,-0.3812,-0.38,-0.3799,-0.38,-0.3803,-0.3808,-0.3805,-0.3773,-0.3798,-0.3797,-0.3797,-0.3797,-0.3797,-0.3926,-0.3926,-0.3916,-0.3911,-0.3904,-0.3898,-0.3896,-0.3887,-0.3882,-0.3874,-0.3866,-0.3862,-0.3852,-0.384,-0.3835,-0.3831,-0.3825,-0.3827,-0.3827,-0.3828,-0.3829,-0.3809,-0.383,-0.383,-0.383,-0.383,-0.3829,0,-0.3949,-0.3942,-0.3937,-0.3928,-0.3924,-0.3914,-0.3906,-0.3904,-0.39,-0.3892,-0.3887,-0.3882,-0.3877,-0.3865,-0.3858,-0.3858,-0.3853,-0.3857,-0.3856,-0.3855,-0.3835,-0.3835,-0.3861,-0.3861,-0.3861,-0.3861,-0.3861,-0.3861,-0.396,-0.396,-0.3952,-0.3948,-0.3941,-0.3937,-0.3933,-0.3927,-0.3921,-0.3915,-0.3911,-0.3904,-0.3894,-0.3887,-0.3882,-0.3879,-0.3877,-0.3882,-0.3877,-0.3859,-0.3856,-0.3853,-0.3853,-0.3882,-0.3882,-0.3897,-0.3897,-0.3897]},{"header":{"parameterUnit":"m.s-1","parameterCategory":1,"la1":30.2991,"la2":30.254,"lo1":-89.0895,"lo2":-89.0444,"dy":0.0017,"dx":0.0017,"nx":28,"ny":28,"refTime":"2023-08-31T21:00:00:Z","depth":0,"parameterNumber":3,"parameterNumberName":"V-component_of_WINDS"},"data":[0,0,0,0,0,0,0,0,0,0,0,0,0,0,0,0,0,0,0,0,0,0,0,0,0,0,0,0,0,0,0,0,0,0,0,0,0,0,0,0,0,0,0,0,0,0,0,0,0,0,0,0,0,0,0,0,0,0,1.6663,1.6664,0,1.6771,1.6772,1.6773,1.681,1.681,1.6809,1.6809,1.6918,1.6922,1.6925,0,0,0,0,0,0,0,0,0,0,0,0,0,1.6488,1.6491,1.6663,1.6664,1.6666,1.6771,1.6772,1.6774,1.681,1.681,1.6809,1.6808,1.6917,1.6921,1.6925,0,0,0,0,0,0,0,0,0,0,0,0,0,1.6576,1.6492,1.6663,1.6697,1.6701,1.677,1.6772,1.6774,1.681,1.6809,1.6809,1.6808,1.6916,1.6921,1.6926,1.6969,0,0,1.6941,1.6943,0,0,0,0,0,0,0,0,1.6571,1.6583,1.669,1.6694,1.6699,1.6776,1.6751,1.6839,1.681,1.6769,1.6809,1.6808,1.6872,1.688,1.6902,1.6975,1.6979,1.6941,1.6944,1.6946,1.6948,0,0,0,0,0,0,0,1.6565,1.6578,1.6706,1.6692,1.6697,1.6706,1.6718,1.6768,1.6822,1.6772,1.6775,1.6787,1.6874,1.6897,1.6905,1.6981,1.6941,1.6946,1.6949,1.6951,1.7094,1.7095,0,0,0,0,0,0,1.6553,1.6573,1.6702,1.6709,1.6632,1.671,1.6723,1.6752,1.6822,1.6832,1.6788,1.6789,1.6889,1.6899,1.6909,1.6964,1.6946,1.6951,1.6954,1.7094,1.7095,1.7096,0,0,0,0,0,0,1.655,1.6565,1.6698,1.6642,1.666,1.6713,1.6746,1.6755,1.6778,1.6834,1.6844,1.6801,1.6889,1.6902,1.6954,1.6969,1.6953,1.6958,1.7093,1.7094,1.7095,1.7076,0,0,0,0,0,0,1.6544,1.6563,1.6581,1.6642,1.6662,1.6742,1.6747,1.6757,1.6786,1.6788,1.6849,1.6859,1.6889,1.6946,1.6959,1.6975,1.6962,1.7092,1.7093,1.7095,1.7076,1.7077,1.7077,0,0,0,0,0,1.6538,1.6571,1.6581,1.6597,1.6685,1.6743,1.6754,1.6789,1.6787,1.6805,1.6841,1.6857,1.6965,1.6951,1.6966,1.6984,1.7091,1.7093,1.7095,1.7075,1.7077,1.7077,0,0,0,0,0,0,1.651,1.658,1.6592,1.6646,1.6688,1.6749,1.6772,1.6789,1.6832,1.6833,1.6874,1.6887,1.6936,1.6965,1.6949,1.703,1.7029,1.7033,1.7009,1.7011,1.7011,1.7004,1.6966,0,0,0,0,0,1.651,1.6551,1.6609,1.6651,1.6672,1.6718,1.6744,1.6767,1.6813,1.6831,1.6871,1.6914,1.6958,1.6986,1.7029,1.708,1.7094,1.7099,1.71,1.7101,1.7104,1.7133,1.7137,1.7102,1.7102,1.7102,0,0,1.651,1.6554,1.6577,1.6647,1.6682,1.6723,1.6733,1.6776,1.6807,1.6837,1.689,1.692,1.6971,1.7022,1.7047,1.7048,1.7117,1.7103,1.7103,1.7107,1.7136,1.7139,1.7142,1.7103,1.7103,1.7103,0,0,1.6533,1.6569,1.6608,1.6643,1.6697,1.6727,1.6736,1.6795,1.6816,1.6869,1.6892,1.6929,1.7004,1.7039,1.7067,1.7101,1.7117,1.7114,1.7119,1.7147,1.7149,1.7152,1.7164,1.7168,1.7118,1.7118,1.7118,0,1.6526,1.659,1.6626,1.6668,1.6698,1.6727,1.6766,1.6798,1.6863,1.6883,1.6883,1.6977,1.7013,1.7074,1.7082,1.7103,1.7115,1.7108,1.7146,1.7149,1.7152,1.7164,1.7169,1.7117,1.7117,1.7117,1.7117,0,1.658,1.6623,1.6648,1.671,1.6742,1.6783,1.6824,1.6853,1.6873,1.6903,1.6956,1.7,1.7053,1.7069,1.7089,1.7132,1.7131,1.7138,1.7138,1.7154,1.7166,1.7171,1.7116,1.7116,1.7116,1.7117,0,0,1.6588,1.6669,1.6678,1.6706,1.6767,1.6801,1.6842,1.6894,1.6917,1.696,1.6996,1.7058,1.7065,1.7096,1.712,1.7144,1.7169,1.7148,1.715,1.7151,1.7219,1.7214,1.7219,1.7179,1.718,1.7181,1.7215,0,1.6619,1.6694,1.6728,1.6788,1.6828,1.6856,1.6892,1.6933,1.6962,1.7,1.7032,1.7076,1.7081,1.71,1.7125,1.716,1.7183,1.7158,1.7213,1.7214,1.72,1.7226,1.7221,1.7251,1.722,1.7221,1.7222,0,1.6665,1.6708,1.6773,1.6828,1.6846,1.6878,1.6928,1.6964,1.7011,1.703,1.7065,1.7087,1.7131,1.7127,1.7189,1.7171,1.7195,1.7216,1.7218,1.7225,1.7219,1.7234,1.7261,1.7266,1.7229,1.7229,1.7228,0,1.6665,1.6739,1.6788,1.6811,1.6877,1.6898,1.6927,1.6973,1.7001,1.7045,1.7064,1.7111,1.7138,1.7174,1.7208,1.7202,1.7266,1.7265,1.7284,1.7283,1.7297,1.7296,1.7329,1.7311,1.7311,1.7311,1.7311,0,1.6696,1.6734,1.6789,1.6818,1.6862,1.6899,1.6941,1.6971,1.7012,1.7048,1.7074,1.7107,1.715,1.7189,1.7216,1.7263,1.7274,1.7291,1.7298,1.7289,1.7287,1.7306,1.7305,1.7312,1.7312,1.7312,1.7311,0,1.6704,1.6742,1.6796,1.6854,1.6869,1.6899,1.6948,1.6977,1.7007,1.7052,1.7065,1.7112,1.7159,1.7196,1.7257,1.7276,1.7324,1.7332,1.7309,1.7313,1.7329,1.7327,1.7377,1.7385,1.736,1.7361,1.7361,0,1.6721,1.6752,1.6812,1.6838,1.6866,1.6908,1.6937,1.6974,1.7004,1.7059,1.7082,1.713,1.7171,1.7244,1.7283,1.733,1.7339,1.7353,1.7346,1.7336,1.734,1.7338,1.7341,1.7354,1.7354,1.7354,1.7354,0,1.6749,1.6766,1.6807,1.6855,1.689,1.6929,1.6969,1.6989,1.7033,1.7065,1.7113,1.7145,1.7206,1.7254,1.7305,1.7334,1.7351,1.7356,1.7363,1.7354,1.734,1.7348,1.7311,1.7355,1.7355,1.7355,1.7355,1.7355,1.6763,1.6791,1.6838,1.6883,1.6917,1.6954,1.6984,1.7018,1.7058,1.7112,1.7131,1.718,1.7226,1.7295,1.7324,1.7363,1.7365,1.7375,1.7377,1.738,1.7379,1.7333,1.7372,1.7372,1.7372,1.7373,1.7373,0,1.6792,1.6823,1.6864,1.692,1.6955,1.6968,1.7013,1.7042,1.7085,1.7125,1.7165,1.7219,1.7266,1.7308,1.7356,1.7379,1.7389,1.7391,1.739,1.7396,1.7374,1.7364,1.7382,1.7382,1.7382,1.7382,1.7382,1.7382,1.6811,1.686,1.6882,1.6947,1.6978,1.7026,1.7051,1.7085,1.7117,1.7177,1.7216,1.7243,1.7285,1.7336,1.7379,1.739,1.7407,1.7407,1.7421,1.7399,1.7398,1.7396,1.7387,1.741,1.741,1.744,1.744,1.7441]}]]